Location: Wildlife_Club
(35.6000°N, 81.4330°W)
Time: 05:38:42
(UTC-04:00)

Vanguard 2 - Pass Details

Date: 02 July 2019
Orbit: 553 x 2938 km, 32.9° (Epoch: 18 July)

Event Time Altitude Azimuth Distance (km) Brightness Sun altitude
Exits shadow 04:30:33 13° 165° (SSE) 1,837 9.2 -17.4°
Maximum altitude 04:31:08 14° 157° (SSE) 1,786 9.2 -17.3°
Drops below altitude 10° 04:33:17 10° 126° (SE) 1,908 9.7 -17.0°
Sets 04:36:23 0° 98° (E) 2,720 10.9 -16.6°
